When you browse on this site, cookies collect data to enhance your experience and personalize the content and advertising you see.
Visit our Privacy Policy to learn more. By continuing to use the site, you agree to this use of cookies and data.
  • In Netherlands
  • List of Countries
  • For 7 days
  • Water Temperature
  • Weather Map
  • Weather Widgets
  • user-avatar
    Login

    Hourly Weather Lowech

    Today, 20 November, Wednesday

    Time Temperature Precipitation Wind Pressure Humidity
    00:00 +12°C° 0 mm 1 mps 741 mmHg 88%
    01:00 +12°C° 0 mm 1 mps 740 mmHg 88%
    02:00 +11°C° 0 mm 0 mps 740 mmHg 87%
    03:00 +12°C° 0 mm 1 mps 740 mmHg 88%
    04:00 +12°C° 0 mm 1 mps 739 mmHg 88%
    05:00 +12°C° 0 mm 1 mps 739 mmHg 88%
    06:00 +12°C° 0 mm 1 mps 739 mmHg 88%
    07:00 +12°C° 0 mm 1 mps 739 mmHg 88%
    08:00 +13°C° 0 mm 2 mps 738 mmHg 87%
    09:00 +13°C° 0 mm 3 mps 738 mmHg 77%
    10:00 +16°C° 0 mm 3 mps 738 mmHg 67%
    11:00 +18°C° 0 mm 4 mps 738 mmHg 57%
    12:00 +18°C° 0 mm 4 mps 738 mmHg 56%
    13:00 +18°C° 0 mm 4 mps 738 mmHg 54%
    14:00 +19°C° 0 mm 4 mps 737 mmHg 52%
    15:00 +18°C° 0 mm 4 mps 737 mmHg 57%
    16:00 +17°C° 0 mm 3 mps 737 mmHg 62%
    17:00 +16°C° 0 mm 2 mps 737 mmHg 68%
    18:00 +14°C° 0.2 mm 3 mps 737 mmHg 72%
    19:00 +13°C° 0.2 mm 3 mps 737 mmHg 77%
    20:00 +12°C° 0.2 mm 3 mps 737 mmHg 82%
    21:00 +12°C° 0.3 mm 3 mps 737 mmHg 82%
    22:00 +13°C° 0.3 mm 2 mps 738 mmHg 82%
    23:00 +13°C° 0.3 mm 2 mps 738 mmHg 82%

    Tomorrow, 21 November, Thursday

    Time Temperature Precipitation Wind Pressure Humidity
    00:00 +12°C° 0 mm 2 mps 738 mmHg 84%
    01:00 +12°C° 0 mm 1 mps 738 mmHg 86%
    02:00 +12°C° 0 mm 1 mps 738 mmHg 88%
    03:00 +12°C° 0 mm 1 mps 737 mmHg 89%
    04:00 +12°C° 0 mm 1 mps 737 mmHg 90%
    05:00 +11°C° 0 mm 1 mps 737 mmHg 90%
    06:00 +10°C° 0 mm 0 mps 737 mmHg 90%
    07:00 +10°C° 0 mm 0 mps 737 mmHg 90%
    08:00 +10°C° 0 mm 0 mps 738 mmHg 89%
    09:00 +12°C° 0 mm 0 mps 738 mmHg 84%
    10:00 +14°C° 0 mm 1 mps 738 mmHg 78%
    11:00 +16°C° 0 mm 1 mps 738 mmHg 72%
    12:00 +16°C° 0 mm 1 mps 738 mmHg 70%
    13:00 +16°C° 0 mm 2 mps 737 mmHg 69%
    14:00 +17°C° 0 mm 2 mps 737 mmHg 67%
    15:00 +16°C° 0 mm 2 mps 737 mmHg 70%
    16:00 +15°C° 0 mm 2 mps 737 mmHg 74%
    17:00 +15°C° 0 mm 2 mps 737 mmHg 77%
    18:00 +13°C° 0.2 mm 3 mps 737 mmHg 78%
    19:00 +13°C° 0.2 mm 3 mps 737 mmHg 78%
    20:00 +13°C° 0.2 mm 3 mps 738 mmHg 79%
    21:00 +13°C° 0.2 mm 3 mps 738 mmHg 80%
    22:00 +12°C° 0.2 mm 4 mps 738 mmHg 81%
    23:00 +12°C° 0.2 mm 4 mps 738 mmHg 82%

    Day after tomorrow, 22 November, Friday

    Time Temperature Precipitation Wind Pressure Humidity
    00:00 +12°C° 0.1 mm 4 mps 738 mmHg 82%
    01:00 +12°C° 0.1 mm 4 mps 738 mmHg 83%
    02:00 +12°C° 0.1 mm 4 mps 738 mmHg 84%
    03:00 +10°C° 0 mm 5 mps 738 mmHg 84%
    04:00 +10°C° 0 mm 5 mps 738 mmHg 84%
    05:00 +10°C° 0 mm 5 mps 738 mmHg 83%
    06:00 +9°C° 0.1 mm 5 mps 738 mmHg 82%
    07:00 +9°C° 0.1 mm 6 mps 739 mmHg 81%
    08:00 +9°C° 0.1 mm 6 mps 739 mmHg 80%
    09:00 +9°C° 0.1 mm 6 mps 739 mmHg 79%
    10:00 +9°C° 0.1 mm 5 mps 740 mmHg 79%
    11:00 +9°C° 0.1 mm 5 mps 740 mmHg 78%
    12:00 +9°C° 0 mm 5 mps 740 mmHg 75%
    13:00 +10°C° 0 mm 5 mps 740 mmHg 73%
    14:00 +10°C° 0 mm 5 mps 740 mmHg 70%
    15:00 +10°C° 0.1 mm 5 mps 740 mmHg 72%
    16:00 +9°C° 0.1 mm 5 mps 740 mmHg 74%
    17:00 +9°C° 0.1 mm 5 mps 740 mmHg 77%
    18:00 +8°C° 0.1 mm 5 mps 740 mmHg 78%
    19:00 +8°C° 0.1 mm 5 mps 740 mmHg 80%
    20:00 +7°C° 0.1 mm 4 mps 741 mmHg 82%
    21:00 +7°C° 0 mm 4 mps 741 mmHg 82%
    22:00 +7°C° 0 mm 4 mps 741 mmHg 82%
    23:00 +7°C° 0 mm 3 mps 741 mmHg 83%

    23 November, Saturday

    Time Temperature Precipitation Wind Pressure Humidity
    00:00 +7°C° 0 mm 3 mps 741 mmHg 82%
    01:00 +7°C° 0 mm 3 mps 741 mmHg 82%
    02:00 +7°C° 0 mm 2 mps 741 mmHg 82%
    03:00 +7°C° 0.1 mm 2 mps 741 mmHg 83%
    04:00 +7°C° 0.1 mm 2 mps 741 mmHg 84%
    05:00 +6°C° 0.1 mm 2 mps 740 mmHg 85%
    06:00 +6°C° 0 mm 2 mps 741 mmHg 85%
    07:00 +6°C° 0 mm 2 mps 741 mmHg 85%
    08:00 +6°C° 0 mm 2 mps 741 mmHg 86%
    09:00 +6°C° 0 mm 2 mps 741 mmHg 84%
    10:00 +8°C° 0 mm 1 mps 741 mmHg 82%
    11:00 +8°C° 0 mm 1 mps 741 mmHg 80%
    12:00 +9°C° 0 mm 1 mps 740 mmHg 78%
    13:00 +9°C° 0 mm 1 mps 740 mmHg 77%
    14:00 +9°C° 0 mm 2 mps 740 mmHg 76%
    15:00 +9°C° 0 mm 1 mps 740 mmHg 78%
    16:00 +9°C° 0 mm 1 mps 740 mmHg 80%
    17:00 +9°C° 0 mm 1 mps 739 mmHg 82%
    18:00 +8°C° 0 mm 1 mps 739 mmHg 84%
    19:00 +8°C° 0 mm 1 mps 740 mmHg 85%
    20:00 +8°C° 0 mm 1 mps 740 mmHg 87%
    21:00 +8°C° 0 mm 1 mps 740 mmHg 87%
    22:00 +8°C° 0 mm 1 mps 740 mmHg 88%
    23:00 +8°C° 0 mm 1 mps 740 mmHg 88%

    24 November, Sunday

    Time Temperature Precipitation Wind Pressure Humidity
    00:00 +7°C° 0 mm 0 mps 740 mmHg 90%
    01:00 +7°C° 0 mm 0 mps 740 mmHg 91%
    02:00 +6°C° 0 mm 0 mps 739 mmHg 93%
    03:00 +6°C° 0 mm 0 mps 739 mmHg 93%
    04:00 +6°C° 0 mm 0 mps 739 mmHg 93%
    05:00 +6°C° 0 mm 0 mps 739 mmHg 93%
    06:00 +6°C° 0 mm 0 mps 739 mmHg 93%
    07:00 +6°C° 0 mm 0 mps 739 mmHg 93%
    08:00 +6°C° 0 mm 0 mps 739 mmHg 93%
    09:00 +8°C° 0 mm 0 mps 739 mmHg 88%
    10:00 +10°C° 0 mm 1 mps 740 mmHg 83%
    11:00 +11°C° 0 mm 1 mps 740 mmHg 78%
    12:00 +12°C° 0 mm 1 mps 739 mmHg 76%
    13:00 +13°C° 0 mm 1 mps 739 mmHg 74%
    14:00 +13°C° 0 mm 1 mps 739 mmHg 72%
    15:00 +13°C° 0 mm 1 mps 739 mmHg 76%
    16:00 +12°C° 0 mm 1 mps 739 mmHg 80%
    17:00 +11°C° 0 mm 1 mps 739 mmHg 83%
    18:00 +11°C° 0 mm 1 mps 739 mmHg 86%
    19:00 +10°C° 0 mm 1 mps 738 mmHg 88%
    20:00 +10°C° 0 mm 1 mps 738 mmHg 90%
    21:00 +9°C° 0 mm 0 mps 738 mmHg 90%
    22:00 +9°C° 0 mm 0 mps 738 mmHg 91%
    23:00 +8°C° 0 mm 0 mps 738 mmHg 92%

    25 November, Monday

    Time Temperature Precipitation Wind Pressure Humidity
    00:00 +8°C° 0 mm 0 mps 738 mmHg 92%
    01:00 +8°C° 0 mm 0 mps 738 mmHg 93%
    02:00 +9°C° 0 mm 1 mps 738 mmHg 93%
    03:00 +8°C° 0 mm 0 mps 737 mmHg 94%
    04:00 +8°C° 0 mm 0 mps 737 mmHg 94%
    05:00 +8°C° 0 mm 0 mps 737 mmHg 94%
    06:00 +8°C° 0 mm 0 mps 737 mmHg 94%
    07:00 +8°C° 0 mm 0 mps 737 mmHg 93%
    08:00 +8°C° 0 mm 0 mps 737 mmHg 93%
    09:00 +9°C° 0 mm 0 mps 737 mmHg 89%
    10:00 +9°C° 0 mm 0 mps 737 mmHg 85%
    11:00 +11°C° 0 mm 1 mps 737 mmHg 81%
    12:00 +12°C° 0 mm 1 mps 737 mmHg 78%
    13:00 +12°C° 0 mm 1 mps 736 mmHg 75%
    14:00 +13°C° 0 mm 1 mps 736 mmHg 73%
    15:00 +12°C° 0 mm 1 mps 736 mmHg 75%
    16:00 +12°C° 0 mm 1 mps 736 mmHg 77%
    17:00 +11°C° 0 mm 1 mps 736 mmHg 79%
    18:00 +11°C° 0.1 mm 1 mps 736 mmHg 81%
    19:00 +10°C° 0.1 mm 2 mps 736 mmHg 82%
    20:00 +9°C° 0.1 mm 2 mps 736 mmHg 84%
    21:00 +9°C° 0.1 mm 2 mps 736 mmHg 83%
    22:00 +9°C° 0.1 mm 2 mps 736 mmHg 83%
    23:00 +9°C° 0.1 mm 2 mps 736 mmHg 82%
    Show more